| time (UTC) | temp F | wind direction | speed MPH | gust MPH | rain 1hr in | rain 24hr in | rain mn in | humidity % | barometer mb |
| 20260506051021 | 58 | 127 | 3.0 | 10.0 | 0.00 | 0.00 | 0.00 | 84 | 1014.8 |
| 20260506050521 | 58 | 110 | 5.0 | 12.0 | 0.00 | 0.00 | 0.00 | 83 | 1014.8 |
| 20260506045021 | 58 | 123 | 6.0 | 11.0 | 0.00 | 0.00 | 0.00 | 83 | 1014.7 |
| 20260506044548 | 58 | 132 | 5.0 | 11.0 | 0.00 | 0.00 | 0.00 | 83 | 1014.6 |
| 20260506044020 | 58 | 131 | 6.0 | 10.0 | 0.00 | 0.00 | 0.00 | 83 | 1014.6 |
| 20260506043520 | 58 | 124 | 5.0 | 10.0 | 0.00 | 0.00 | 0.00 | 83 | 1014.6 |
| 20260506043037 | 59 | 115 | 5.0 | 10.0 | 0.00 | 0.00 | 0.00 | 83 | 1014.5 |
| 20260506042522 | 59 | 143 | 5.0 | 9.0 | 0.00 | 0.00 | 0.00 | 83 | 1014.5 |
| 20260506042021 | 59 | 148 | 5.0 | 9.0 | 0.00 | 0.00 | 0.00 | 83 | 1014.4 |
| 20260506041548 | 59 | 133 | 3.0 | 8.0 | 0.00 | 0.00 | 0.00 | 83 | 1014.4 |
| 20260506041025 | 58 | 120 | 2.0 | 7.0 | 0.00 | 0.00 | 0.00 | 83 | 1014.4 |
| 20260506040525 | 58 | 133 | 2.0 | 7.0 | 0.00 | 0.00 | 0.00 | 83 | 1014.3 |
| 20260506040044 | 59 | 126 | 4.0 | 9.0 | 0.00 | 0.00 | 0.00 | 82 | 1014.3 |
| 20260506035521 | 59 | 129 | 4.0 | 10.0 | 0.00 | 0.00 | 0.00 | 82 | 1014.2 |
| 20260506035021 | 59 | 136 | 5.0 | 10.0 | 0.00 | 0.00 | 0.00 | 82 | 1014.1 |
| 20260506034547 | 59 | 144 | 5.0 | 10.0 | 0.00 | 0.00 | 0.00 | 82 | 1014.2 |
| 20260506034021 | 59 | 217 | 6.0 | 9.0 | 0.00 | 0.00 | 0.00 | 82 | 1014.0 |
| 20260506033521 | 59 | 148 | 4.0 | 11.0 | 0.00 | 0.00 | 0.00 | 82 | 1013.9 |
| 20260506033042 | 59 | 130 | 4.0 | 11.0 | 0.00 | 0.00 | 0.00 | 82 | 1013.9 |
| 20260506032521 | 59 | 139 | 5.0 | 11.0 | 0.00 | 0.00 | 0.00 | 82 | 1013.8 |
| 20260506032022 | 59 | 127 | 5.0 | 10.0 | 0.00 | 0.00 | 0.00 | 82 | 1013.9 |
| 20260506031539 | 59 | 136 | 5.0 | 11.0 | 0.00 | 0.00 | 0.00 | 82 | 1013.9 |
| 20260506031021 | 60 | 178 | 5.0 | 11.0 | 0.00 | 0.00 | 0.00 | 82 | 1013.9 |
| 20260506030524 | 60 | 134 | 5.0 | 10.0 | 0.00 | 0.00 | 0.00 | 81 | 1013.9 |
| 20260506030037 | 60 | 117 | 4.0 | 9.0 | 0.00 | 0.00 | 0.00 | 81 | 1013.8 |
| 20260506025521 | 60 | 245 | 4.0 | 9.0 | 0.00 | 0.00 | 0.00 | 81 | 1013.8 |
| 20260506025020 | 61 | 136 | 4.0 | 9.0 | 0.00 | 0.00 | 0.00 | 80 | 1013.8 |
| 20260506024557 | 61 | 124 | 4.0 | 10.0 | 0.00 | 0.00 | 0.00 | 80 | 1013.9 |
| 20260506024023 | 61 | 144 | 5.0 | 10.0 | 0.00 | 0.00 | 0.00 | 80 | 1013.9 |
| 20260506023524 | 61 | 191 | 3.0 | 9.0 | 0.00 | 0.00 | 0.00 | 80 | 1013.9 |
| 20260506023044 | 61 | 122 | 5.0 | 9.0 | 0.00 | 0.00 | 0.00 | 79 | 1013.9 |
| 20260506022525 | 62 | 146 | 3.0 | 7.0 | 0.00 | 0.00 | 0.00 | 79 | 1013.9 |
| 20260506022022 | 62 | 146 | 3.0 | 11.0 | 0.00 | 0.00 | 0.00 | 79 | 1014.0 |
| 20260506021551 | 61 | 120 | 5.0 | 11.0 | 0.00 | 0.00 | 0.00 | 79 | 1014.0 |
| 20260506021022 | 61 | 176 | 4.0 | 10.0 | 0.00 | 0.00 | 0.00 | 79 | 1014.0 |
| 20260506020523 | 62 | 141 | 4.0 | 10.0 | 0.00 | 0.00 | 0.00 | 79 | 1014.0 |
| 20260506020042 | 62 | 155 | 4.0 | 10.0 | 0.00 | 0.00 | 0.00 | 78 | 1014.0 |
| 20260506015524 | 62 | 150 | 4.0 | 9.0 | 0.00 | 0.00 | 0.00 | 78 | 1014.0 |
| 20260506015021 | 62 | 149 | 4.0 | 9.0 | 0.00 | 0.00 | 0.00 | 77 | 1014.0 |
| 20260506014537 | 62 | 226 | 3.0 | 8.0 | 0.00 | 0.00 | 0.00 | 77 | 1014.0 |
| 20260506014020 | 62 | 143 | 4.0 | 8.0 | 0.00 | 0.00 | 0.00 | 76 | 1014.1 |
| 20260506013522 | 62 | 153 | 3.0 | 8.0 | 0.00 | 0.00 | 0.00 | 77 | 1014.1 |
| 20260506013044 | 62 | 142 | 4.0 | 8.0 | 0.00 | 0.00 | 0.00 | 77 | 1014.1 |
| 20260506012524 | 62 | 205 | 3.0 | 8.0 | 0.00 | 0.00 | 0.00 | 77 | 1014.1 |
| 20260506012023 | 62 | 130 | 4.0 | 8.0 | 0.00 | 0.00 | 0.00 | 77 | 1014.1 |
| 20260506011609 | 62 | 149 | 4.0 | 8.0 | 0.00 | 0.00 | 0.00 | 77 | 1014.0 |
| 20260506011024 | 62 | 151 | 4.0 | 10.0 | 0.00 | 0.00 | 0.00 | 77 | 1014.0 |
| 20260506010523 | 62 | 184 | 4.0 | 10.0 | 0.00 | 0.00 | 0.00 | 77 | 1014.1 |
| 20260506010044 | 62 | 180 | 4.0 | 10.0 | 0.00 | 0.00 | 0.00 | 77 | 1014.2 |
| 20260506005522 | 62 | 108 | 4.0 | 11.0 | 0.00 | 0.00 | 0.00 | 76 | 1014.1 |
| 20260506005021 | 62 | 219 | 3.0 | 11.0 | 0.00 | 0.00 | 0.00 | 78 | 1014.1 |
| 20260506004545 | 62 | 146 | 4.0 | 11.0 | 0.00 | 0.00 | 0.00 | 78 | 1014.1 |
| 20260506004021 | 62 | 157 | 5.0 | 11.0 | 0.00 | 0.00 | 0.00 | 78 | 1014.2 |
| 20260506003521 | 62 | 128 | 5.0 | 10.0 | 0.00 | 0.00 | 0.00 | 78 | 1014.1 |
| 20260506003042 | 62 | 131 | 5.0 | 10.0 | 0.00 | 0.00 | 0.00 | 79 | 1014.2 |
| 20260506002521 | 62 | 229 | 5.0 | 11.0 | 0.00 | 0.00 | 0.00 | 78 | 1014.3 |
| 20260506002022 | 62 | 185 | 5.0 | 11.0 | 0.00 | 0.00 | 0.00 | 78 | 1014.3 |
| 20260506001541 | 62 | 133 | 5.0 | 11.0 | 0.00 | 0.00 | 0.00 | 78 | 1014.3 |
| 20260506001021 | 62 | 141 | 4.0 | 11.0 | 0.00 | 0.00 | 0.00 | 78 | 1014.3 |
| 20260506000521 | 62 | 210 | 5.0 | 11.0 | 0.00 | 0.00 | 0.00 | 78 | 1014.4 |
| 20260506000045 | 62 | 123 | 5.0 | 11.0 | 0.00 | 0.00 | 0.00 | 77 | 1014.4 |
| 20260505235524 | 62 | 130 | 5.0 | 11.0 | 0.00 | 0.00 | 0.00 | 78 | 1014.5 |
| 20260505235020 | 62 | 159 | 4.0 | 9.0 | 0.00 | 0.00 | 0.00 | 78 | 1014.5 |
| 20260505234546 | 62 | 165 | 4.0 | 10.0 | 0.00 | 0.00 | 0.00 | 78 | 1014.6 |
| 20260505234026 | 62 | 173 | 4.0 | 10.0 | 0.00 | 0.00 | 0.00 | 78 | 1014.6 |
| 20260505233522 | 62 | 146 | 5.0 | 11.0 | 0.00 | 0.00 | 0.00 | 77 | 1014.6 |
| 20260505233045 | 62 | 210 | 5.0 | 11.0 | 0.00 | 0.00 | 0.00 | 78 | 1014.7 |
| 20260505232527 | 62 | 143 | 5.0 | 11.0 | 0.00 | 0.00 | 0.00 | 78 | 1014.7 |
| 20260505232023 | 62 | 141 | 6.0 | 11.0 | 0.00 | 0.00 | 0.00 | 78 | 1014.8 |
| 20260505231544 | 62 | 179 | 4.0 | 9.0 | 0.00 | 0.00 | 0.00 | 78 | 1014.9 |
| 20260505231021 | 62 | 148 | 4.0 | 11.0 | 0.00 | 0.00 | 0.00 | 79 | 1014.9 |
| 20260505230521 | 62 | 205 | 5.0 | 11.0 | 0.00 | 0.00 | 0.00 | 78 | 1015.0 |
| 20260505230038 | 62 | 131 | 5.0 | 11.0 | 0.00 | 0.00 | 0.00 | 79 | 1014.9 |
| 20260505225524 | 62 | 182 | 5.0 | 11.0 | 0.00 | 0.00 | 0.00 | 78 | 1014.9 |
| 20260505225021 | 62 | 176 | 6.0 | 11.0 | 0.00 | 0.00 | 0.00 | 78 | 1015.1 |
| 20260505224538 | 62 | 172 | 4.0 | 11.0 | 0.00 | 0.00 | 0.00 | 79 | 1015.2 |
| 20260505224020 | 62 | 154 | 4.0 | 12.0 | 0.00 | 0.00 | 0.00 | 78 | 1015.2 |
| 20260505223521 | 62 | 153 | 5.0 | 12.0 | 0.00 | 0.00 | 0.00 | 78 | 1015.3 |
| 20260505223037 | 62 | 158 | 5.0 | 11.0 | 0.00 | 0.00 | 0.00 | 77 | 1015.3 |
| 20260505222523 | 62 | 167 | 4.0 | 8.0 | 0.00 | 0.00 | 0.00 | 78 | 1015.3 |
| 20260505222023 | 62 | 155 | 4.0 | 9.0 | 0.00 | 0.00 | 0.00 | 78 | 1015.2 |
| 20260505221536 | 62 | 207 | 5.0 | 9.0 | 0.00 | 0.00 | 0.00 | 78 | 1015.3 |
| 20260505221025 | 62 | 187 | 4.0 | 11.0 | 0.00 | 0.00 | 0.00 | 78 | 1015.3 |
| 20260505220520 | 62 | 194 | 4.0 | 11.0 | 0.00 | 0.00 | 0.00 | 79 | 1015.2 |
| 20260505220056 | 62 | 211 | 5.0 | 10.0 | 0.00 | 0.00 | 0.00 | 79 | 1015.4 |
| 20260505215523 | 62 | 159 | 5.0 | 10.0 | 0.00 | 0.00 | 0.00 | 79 | 1015.4 |
| 20260505215023 | 62 | 160 | 4.0 | 10.0 | 0.00 | 0.00 | 0.00 | 79 | 1015.5 |
| 20260505214550 | 62 | 141 | 5.0 | 10.0 | 0.00 | 0.00 | 0.00 | 79 | 1015.6 |
| 20260505214023 | 62 | 184 | 5.0 | 11.0 | 0.00 | 0.00 | 0.00 | 79 | 1015.6 |
| 20260505213521 | 62 | 184 | 5.0 | 11.0 | 0.00 | 0.00 | 0.00 | 79 | 1015.7 |
| 20260505213041 | 62 | 209 | 5.0 | 11.0 | 0.00 | 0.00 | 0.00 | 79 | 1015.6 |
| 20260505212521 | 61 | 216 | 6.0 | 11.0 | 0.00 | 0.00 | 0.00 | 79 | 1015.7 |
| 20260505212021 | 61 | 179 | 6.0 | 11.0 | 0.00 | 0.00 | 0.00 | 79 | 1015.7 |
| 20260505211542 | 61 | 185 | 5.0 | 11.0 | 0.00 | 0.00 | 0.00 | 80 | 1015.7 |
| 20260505211021 | 61 | 161 | 6.0 | 12.0 | 0.00 | 0.00 | 0.00 | 79 | 1015.7 |
| 20260505210520 | 61 | 130 | 5.0 | 12.0 | 0.00 | 0.00 | 0.00 | 80 | 1015.8 |
| 20260505210045 | 61 | 201 | 6.0 | 12.0 | 0.00 | 0.00 | 0.00 | 80 | 1015.8 |
| 20260505205526 | 61 | 160 | 7.0 | 11.0 | 0.00 | 0.00 | 0.00 | 80 | 1015.9 |
| 20260505205024 | 61 | 179 | 5.0 | 12.0 | 0.00 | 0.00 | 0.00 | 80 | 1015.9 |
| 20260505204545 | 61 | 65 | 6.0 | 12.0 | 0.00 | 0.00 | 0.00 | 80 | 1015.8 |
| 20260505204023 | 61 | 179 | 7.0 | 12.0 | 0.00 | 0.00 | 0.00 | 80 | 1015.8 |
| 20260505203523 | 61 | 164 | 6.0 | 10.0 | 0.00 | 0.00 | 0.00 | 80 | 1015.9 |
| 20260505203043 | 61 | 183 | 5.0 | 10.0 | 0.00 | 0.00 | 0.00 | 80 | 1015.8 |
| 20260505202520 | 61 | 158 | 5.0 | 11.0 | 0.00 | 0.00 | 0.00 | 80 | 1015.8 |
| 20260505202022 | 61 | 174 | 5.0 | 11.0 | 0.00 | 0.00 | 0.00 | 80 | 1015.8 |
| 20260505201546 | 61 | 146 | 5.0 | 9.0 | 0.00 | 0.00 | 0.00 | 80 | 1015.8 |
| 20260505201022 | 61 | 167 | 5.0 | 10.0 | 0.00 | 0.00 | 0.00 | 80 | 1015.7 |
| 20260505200522 | 61 | 205 | 5.0 | 10.0 | 0.00 | 0.00 | 0.00 | 80 | 1015.8 |
| 20260505200040 | 61 | 191 | 5.0 | 10.0 | 0.00 | 0.00 | 0.00 | 80 | 1015.8 |
| 20260505195522 | 61 | 157 | 6.0 | 10.0 | 0.00 | 0.00 | 0.00 | 80 | 1015.8 |
| 20260505195022 | 61 | 137 | 6.0 | 10.0 | 0.00 | 0.00 | 0.00 | 81 | 1015.9 |
| 20260505194538 | 61 | 283 | 5.0 | 9.0 | 0.00 | 0.00 | 0.00 | 81 | 1015.9 |
| 20260505194027 | 61 | 172 | 5.0 | 8.0 | 0.00 | 0.00 | 0.00 | 81 | 1016.0 |
| 20260505193522 | 61 | 236 | 4.0 | 7.0 | 0.00 | 0.00 | 0.00 | 82 | 1015.9 |
| 20260505193042 | 61 | 172 | 3.0 | 10.0 | 0.00 | 0.00 | 0.00 | 83 | 1015.8 |
| 20260505192522 | 61 | 203 | 4.0 | 10.0 | 0.00 | 0.00 | 0.00 | 82 | 1015.9 |
| 20260505192022 | 60 | 156 | 4.0 | 10.0 | 0.00 | 0.00 | 0.00 | 83 | 1016.0 |
| 20260505191548 | 60 | 129 | 5.0 | 10.0 | 0.00 | 0.00 | 0.00 | 81 | 1015.8 |
| 20260505191022 | 61 | 174 | 6.0 | 10.0 | 0.00 | 0.00 | 0.00 | 81 | 1015.8 |
| 20260505190526 | 61 | 167 | 4.0 | 10.0 | 0.00 | 0.00 | 0.00 | 82 | 1015.8 |
| 20260505190043 | 61 | 210 | 4.0 | 10.0 | 0.00 | 0.00 | 0.00 | 81 | 1015.9 |
| 20260505185522 | 61 | 208 | 5.0 | 10.0 | 0.00 | 0.00 | 0.00 | 82 | 1015.9 |
| 20260505185024 | 61 | 97 | 4.0 | 9.0 | 0.00 | 0.00 | 0.00 | 82 | 1015.9 |
| 20260505184548 | 61 | 148 | 4.0 | 9.0 | 0.00 | 0.00 | 0.00 | 83 | 1015.9 |
| 20260505184022 | 60 | 224 | 4.0 | 11.0 | 0.00 | 0.00 | 0.00 | 83 | 1015.8 |
| 20260505183523 | 60 | 120 | 5.0 | 11.0 | 0.00 | 0.00 | 0.00 | 83 | 1015.9 |
| 20260505183047 | 60 | 147 | 5.0 | 9.0 | 0.00 | 0.00 | 0.00 | 84 | 1015.7 |
| 20260505182524 | 59 | 174 | 4.0 | 10.0 | 0.00 | 0.00 | 0.00 | 85 | 1015.8 |
| 20260505182022 | 59 | 166 | 5.0 | 10.0 | 0.00 | 0.00 | 0.00 | 85 | 1015.7 |
| 20260505181544 | 58 | 184 | 3.0 | 10.0 | 0.00 | 0.00 | 0.00 | 86 | 1015.8 |
| 20260505181026 | 58 | 171 | 3.0 | 10.0 | 0.00 | 0.00 | 0.00 | 87 | 1015.8 |
| 20260505180522 | 58 | 153 | 4.0 | 10.0 | 0.00 | 0.00 | 0.00 | 87 | 1015.8 |
| 20260505180044 | 57 | 150 | 4.0 | 9.0 | 0.00 | 0.00 | 0.00 | 88 | 1015.8 |
| 20260505175522 | 57 | 202 | 4.0 | 9.0 | 0.00 | 0.00 | 0.00 | 87 | 1015.8 |
| 20260505175022 | 57 | 139 | 3.0 | 8.0 | 0.00 | 0.00 | 0.00 | 87 | 1015.7 |
| 20260505174543 | 57 | 182 | 3.0 | 9.0 | 0.00 | 0.00 | 0.00 | 88 | 1015.7 |
| 20260505174021 | 57 | 141 | 4.0 | 9.0 | 0.00 | 0.00 | 0.00 | 88 | 1015.7 |
| 20260505173521 | 57 | 176 | 4.0 | 10.0 | 0.00 | 0.00 | 0.00 | 88 | 1015.7 |
| 20260505173041 | 57 | 167 | 4.0 | 10.0 | 0.00 | 0.00 | 0.00 | 89 | 1015.6 |
| 20260505172522 | 56 | 181 | 3.0 | 9.0 | 0.00 | 0.00 | 0.00 | 90 | 1015.8 |
| 20260505172022 | 56 | 138 | 3.0 | 9.0 | 0.00 | 0.00 | 0.00 | 90 | 1015.8 |
| 20260505171548 | 56 | 146 | 4.0 | 8.0 | 0.00 | 0.00 | 0.00 | 90 | 1015.8 |
| 20260505171023 | 56 | 170 | 4.0 | 9.0 | 0.00 | 0.00 | 0.00 | 90 | 1015.7 |
| 20260505170522 | 56 | 227 | 4.0 | 9.0 | 0.00 | 0.00 | 0.00 | 91 | 1015.7 |
| 20260505170038 | 55 | 154 | 4.0 | 8.0 | 0.00 | 0.00 | 0.00 | 90 | 1015.7 |
| 20260505165523 | 55 | 120 | 3.0 | 7.0 | 0.00 | 0.00 | 0.00 | 91 | 1015.6 |
| 20260505165024 | 55 | 149 | 3.0 | 9.0 | 0.00 | 0.00 | 0.00 | 91 | 1015.6 |
| 20260505164553 | 55 | 124 | 5.0 | 9.0 | 0.00 | 0.00 | 0.00 | 90 | 1015.5 |
| 20260505164021 | 55 | 238 | 4.0 | 9.0 | 0.00 | 0.00 | 0.00 | 91 | 1015.5 |
| 20260505163523 | 55 | 138 | 3.0 | 9.0 | 0.00 | 0.00 | 0.00 | 91 | 1015.6 |
| 20260505163043 | 55 | 158 | 4.0 | 8.0 | 0.00 | 0.00 | 0.00 | 91 | 1015.6 |
| 20260505162523 | 55 | 161 | 4.0 | 8.0 | 0.00 | 0.00 | 0.00 | 91 | 1015.5 |
| 20260505162023 | 55 | 159 | 4.0 | 10.0 | 0.00 | 0.00 | 0.00 | 91 | 1015.4 |
| 20260505161551 | 55 | 176 | 4.0 | 10.0 | 0.00 | 0.00 | 0.00 | 91 | 1015.5 |
| 20260505161023 | 55 | 227 | 3.0 | 8.0 | 0.00 | 0.00 | 0.00 | 91 | 1015.4 |
| 20260505160519 | 55 | 167 | 4.0 | 9.0 | 0.00 | 0.00 | 0.00 | 91 | 1015.4 |
| 20260505153040 | 55 | 184 | 4.0 | 8.0 | 0.00 | 0.00 | 0.00 | 90 | 1015.3 |
| 20260505152525 | 55 | 143 | 3.0 | 8.0 | 0.00 | 0.00 | 0.00 | 90 | 1015.3 |
| 20260505152023 | 55 | 192 | 4.0 | 7.0 | 0.00 | 0.00 | 0.00 | 90 | 1015.2 |
| 20260505151543 | 55 | 186 | 3.0 | 7.0 | 0.00 | 0.00 | 0.00 | 90 | 1015.2 |
| 20260505151024 | 55 | 158 | 3.0 | 8.0 | 0.00 | 0.00 | 0.00 | 90 | 1015.2 |
| 20260505150520 | 55 | 217 | 3.0 | 8.0 | 0.00 | 0.00 | 0.00 | 90 | 1015.0 |
| 20260505140521 | 56 | 148 | 2.0 | 7.0 | 0.00 | 0.00 | 0.00 | 86 | 1014.4 |
| 20260505125023 | 54 | 105 | 4.0 | 8.0 | 0.00 | 0.00 | 0.00 | 89 | 1013.2 |
| 20260505124545 | 54 | 133 | 4.0 | 8.0 | 0.00 | 0.00 | 0.00 | 89 | 1013.1 |
| 20260505124022 | 54 | 126 | 4.0 | 6.0 | 0.00 | 0.00 | 0.00 | 89 | 1013.1 |
| 20260505123522 | 54 | 133 | 4.0 | 7.0 | 0.00 | 0.00 | 0.00 | 89 | 1013.2 |
| 20260505123049 | 54 | 149 | 4.0 | 7.0 | 0.00 | 0.00 | 0.00 | 89 | 1013.1 |
| 20260505122522 | 54 | 108 | 4.0 | 7.0 | 0.00 | 0.00 | 0.00 | 89 | 1013.0 |
| 20260505122025 | 54 | 138 | 4.0 | 7.0 | 0.00 | 0.00 | 0.00 | 88 | 1012.9 |
| 20260505121543 | 55 | 98 | 3.0 | 6.0 | 0.00 | 0.00 | 0.00 | 88 | 1012.8 |
| 20260505121022 | 55 | 98 | 4.0 | 6.0 | 0.00 | 0.00 | 0.00 | 88 | 1012.8 |
| 20260505120522 | 55 | 148 | 3.0 | 5.0 | 0.00 | 0.00 | 0.00 | 88 | 1012.8 |
| 20260505120048 | 55 | 116 | 1.0 | 5.0 | 0.00 | 0.00 | 0.00 | 88 | 1012.7 |
| 20260505115522 | 55 | 131 | 3.0 | 7.0 | 0.00 | 0.00 | 0.00 | 87 | 1012.7 |
| 20260505115022 | 55 | 120 | 3.0 | 7.0 | 0.00 | 0.00 | 0.00 | 87 | 1012.6 |
| 20260505114541 | 55 | 95 | 4.0 | 7.0 | 0.00 | 0.00 | 0.00 | 87 | 1012.5 |
| 20260505114022 | 55 | 139 | 4.0 | 7.0 | 0.00 | 0.00 | 0.00 | 87 | 1012.4 |
| 20260505113522 | 55 | 108 | 4.0 | 7.0 | 0.00 | 0.00 | 0.00 | 87 | 1012.4 |
| 20260505113106 | 56 | 146 | 3.0 | 7.0 | 0.00 | 0.00 | 0.00 | 87 | 1012.3 |
| 20260505112524 | 56 | 105 | 4.0 | 7.0 | 0.00 | 0.00 | 0.00 | 87 | 1012.3 |
| 20260505112021 | 56 | 131 | 2.0 | 6.0 | 0.00 | 0.00 | 0.00 | 87 | 1012.3 |
| 20260505111537 | 56 | 126 | 3.0 | 6.0 | 0.00 | 0.00 | 0.00 | 87 | 1012.3 |
| 20260505111027 | 56 | 111 | 3.0 | 8.0 | 0.00 | 0.00 | 0.00 | 86 | 1012.1 |
| 20260505110523 | 56 | 113 | 4.0 | 8.0 | 0.00 | 0.00 | 0.00 | 85 | 1012.2 |
| 20260505102022 | 56 | 108 | 3.0 | 6.0 | 0.00 | 0.00 | 0.00 | 85 | 1011.7 |
| 20260505101542 | 56 | 95 | 4.0 | 7.0 | 0.00 | 0.00 | 0.00 | 84 | 1011.7 |
| 20260505101023 | 56 | 85 | 4.0 | 7.0 | 0.00 | 0.00 | 0.00 | 85 | 1011.7 |
| 20260505100524 | 56 | 118 | 4.0 | 7.0 | 0.00 | 0.00 | 0.00 | 84 | 1011.6 |
| 20260505100041 | 56 | 83 | 4.0 | 7.0 | 0.00 | 0.00 | 0.00 | 84 | 1011.6 |
| 20260505095524 | 56 | 118 | 3.0 | 6.0 | 0.00 | 0.00 | 0.00 | 84 | 1011.5 |
| 20260505095022 | 56 | 82 | 3.0 | 6.0 | 0.00 | 0.00 | 0.00 | 84 | 1011.5 |
| 20260505094547 | 56 | 113 | 3.0 | 6.0 | 0.00 | 0.00 | 0.00 | 84 | 1011.6 |
| 20260505094021 | 56 | 105 | 4.0 | 6.0 | 0.00 | 0.00 | 0.00 | 83 | 1011.6 |
| 20260505093522 | 56 | 101 | 3.0 | 7.0 | 0.00 | 0.00 | 0.00 | 83 | 1011.5 |
| 20260505093051 | 56 | 117 | 4.0 | 8.0 | 0.00 | 0.00 | 0.00 | 83 | 1011.6 |
| 20260505092522 | 56 | 108 | 5.0 | 11.0 | 0.00 | 0.00 | 0.00 | 83 | 1011.5 |
| 20260505092022 | 56 | 113 | 5.0 | 11.0 | 0.00 | 0.00 | 0.00 | 83 | 1011.4 |
| 20260505091543 | 56 | 95 | 5.0 | 9.0 | 0.00 | 0.00 | 0.00 | 83 | 1011.3 |
| 20260505091022 | 56 | 104 | 5.0 | 10.0 | 0.00 | 0.00 | 0.00 | 83 | 1011.3 |
| 20260505090522 | 57 | 122 | 6.0 | 11.0 | 0.00 | 0.00 | 0.00 | 82 | 1011.3 |
| 20260505090042 | 57 | 102 | 6.0 | 11.0 | 0.00 | 0.00 | 0.00 | 82 | 1011.2 |
| 20260505085522 | 57 | 113 | 8.0 | 11.0 | 0.00 | 0.00 | 0.00 | 81 | 1011.2 |
| 20260505085022 | 57 | 98 | 7.0 | 11.0 | 0.00 | 0.00 | 0.00 | 80 | 1011.2 |
| 20260505084547 | 57 | 127 | 6.0 | 10.0 | 0.00 | 0.00 | 0.00 | 79 | 1011.1 |
| 20260505084022 | 58 | 139 | 6.0 | 10.0 | 0.00 | 0.00 | 0.00 | 79 | 1011.1 |
| 20260505083521 | 58 | 127 | 6.0 | 12.0 | 0.00 | 0.00 | 0.00 | 78 | 1010.9 |
| 20260505083048 | 58 | 118 | 6.0 | 12.0 | 0.00 | 0.00 | 0.00 | 77 | 1010.9 |
| 20260505082521 | 58 | 128 | 7.0 | 12.0 | 0.00 | 0.00 | 0.00 | 77 | 1010.7 |
| 20260505082021 | 58 | 128 | 7.0 | 10.0 | 0.00 | 0.00 | 0.00 | 77 | 1010.5 |
| 20260505081538 | 58 | 85 | 6.0 | 8.0 | 0.00 | 0.00 | 0.00 | 77 | 1010.4 |
| 20260505081022 | 58 | 115 | 4.0 | 7.0 | 0.00 | 0.00 | 0.00 | 77 | 1010.4 |
| 20260505080521 | 59 | 137 | 4.0 | 7.0 | 0.00 | 0.00 | 0.00 | 78 | 1010.3 |
| 20260505080047 | 59 | 125 | 3.0 | 7.0 | 0.00 | 0.00 | 0.00 | 78 | 1010.3 |
| 20260505075522 | 59 | 155 | 4.0 | 7.0 | 0.00 | 0.00 | 0.00 | 77 | 1010.3 |
| 20260505075022 | 59 | 120 | 3.0 | 6.0 | 0.00 | 0.00 | 0.00 | 77 | 1010.2 |
| 20260505074542 | 59 | 143 | 4.0 | 6.0 | 0.00 | 0.00 | 0.00 | 77 | 1010.2 |
| 20260505074022 | 59 | 103 | 4.0 | 6.0 | 0.00 | 0.00 | 0.00 | 77 | 1010.1 |
| 20260505073522 | 59 | 123 | 4.0 | 7.0 | 0.00 | 0.00 | 0.00 | 77 | 1010.0 |
| 20260505073038 | 59 | 98 | 4.0 | 7.0 | 0.00 | 0.00 | 0.00 | 77 | 1010.0 |
| 20260505072521 | 59 | 110 | 4.0 | 7.0 | 0.00 | 0.00 | 0.00 | 77 | 1010.0 |
| 20260505072024 | 60 | 117 | 3.0 | 6.0 | 0.00 | 0.00 | 0.00 | 76 | 1009.9 |
| 20260505071547 | 60 | 117 | 4.0 | 6.0 | 0.00 | 0.00 | 0.00 | 77 | 1010.0 |
| 20260505071022 | 60 | 123 | 3.0 | 6.0 | 0.00 | 0.00 | 0.00 | 77 | 1009.8 |
| 20260505070524 | 60 | 128 | 3.0 | 7.0 | 0.00 | 0.00 | 0.00 | 77 | 1009.8 |
| 20260505070044 | 60 | 145 | 3.0 | 7.0 | 0.00 | 0.00 | 0.00 | 76 | 1009.8 |
| 20260505065522 | 60 | 118 | 4.0 | 7.0 | 0.00 | 0.00 | 0.00 | 76 | 1009.7 |
| 20260505065021 | 60 | 166 | 4.0 | 5.0 | 0.00 | 0.00 | 0.00 | 76 | 1009.7 |
| 20260505064537 | 60 | 93 | 4.0 | 8.0 | 0.00 | 0.00 | 0.00 | 76 | 1009.7 |
| 20260505064022 | 60 | 102 | 3.0 | 8.0 | 0.00 | 0.00 | 0.00 | 76 | 1009.7 |
| 20260505063522 | 60 | 112 | 3.0 | 7.0 | 0.00 | 0.00 | 0.00 | 76 | 1009.7 |
| 20260505063038 | 60 | 119 | 4.0 | 7.0 | 0.00 | 0.00 | 0.00 | 77 | 1009.6 |
| 20260505062522 | 60 | 123 | 5.0 | 7.0 | 0.00 | 0.00 | 0.00 | 77 | 1009.5 |
| 20260505062022 | 59 | 97 | 4.0 | 6.0 | 0.00 | 0.00 | 0.00 | 81 | 1009.5 |
| 20260505061541 | 58 | 136 | 2.0 | 5.0 | 0.00 | 0.00 | 0.00 | 86 | 1009.5 |
| 20260505061022 | 57 | 0 | 0.0 | 0.0 | 0.00 | 0.00 | 0.00 | 87 | 1009.4 |
| 20260505060522 | 57 | 0 | 0.0 | 0.0 | 0.00 | 0.00 | 0.00 | 86 | 1009.4 |
| 20260505060042 | 57 | 0 | 0.0 | 0.0 | 0.00 | 0.00 | 0.00 | 86 | 1009.4 |
| 20260505055522 | 57 | 0 | 0.0 | 0.0 | 0.00 | 0.00 | 0.00 | 86 | 1009.4 |
| 20260505055022 | 58 | 0 | 0.0 | 0.0 | 0.00 | 0.00 | 0.00 | 85 | 1009.4 |
| 20260505054545 | 58 | 0 | 0.0 | 0.0 | 0.00 | 0.00 | 0.00 | 85 | 1009.4 |
| 20260505054025 | 58 | 0 | 0.0 | 0.0 | 0.00 | 0.00 | 0.00 | 84 | 1009.4 |
| 20260505053523 | 58 | 0 | 0.0 | 0.0 | 0.00 | 0.00 | 0.00 | 83 | 1009.4 |
| 20260505053106 | 58 | 0 | 0.0 | 0.0 | 0.00 | 0.00 | 0.00 | 82 | 1009.3 |